Change the Weather History Date:

Wednesday, November 7, 2012

  Actual Average Record
Temperature  
Mean Temperature 60 °F -  
Max Temperature 82 °F 66 °F 85 °F (1980)
Min Temperature 39 °F 37 °F 15 °F (1938)
Degree Days  
Heating Degree Days 4    
Growing Degree Days 10 (Base 50)    
Moisture  
Dew Point 24 °F    
Average Humidity 29    
Maximum Humidity 55    
Minimum Humidity 10    
Precipitation  
Precipitation 0.00 in - - ()
Sea Level Pressure  
Sea Level Pressure 29.96 in    
Wind  
Wind Speed 9 mph (WSW)    
Max Wind Speed 23 mph    
Max Gust Speed 30 mph    
Visibility 10 miles    
Events      
Averages and records for this station are not official NWS values.
T = Trace of Precipitation, MM = Missing Value Source: NWS Daily Summary

Daily Weather History Graph

Daily Weather History Graph

Search for Another Location

Airport or City:

Trip Planner

Search our weather history database for the weather conditions in past years. The results will help you decide how hot, cold, wet, or windy it might be!

Date:

Astronomy

Nov. 07, 2012 Rise Set
Actual Time 6:21 AM MST 4:53 PM MST
Civil Twilight 5:55 AM MST 5:20 PM MST
Nautical Twilight 5:25 AM MST 5:50 PM MST
Astronomical Twilight 4:55 AM MST 6:20 PM MST
Moon No Moon Rise 12:50 PM MST (11/7)
Length of Visible Light 11h 25m
Length of Day
10h 31m
Last Quarter, 42% of the Moon is Illuminated
Nov 7
Last Quarter
Nov 13
New
Nov 20
First Quarter
Nov 28
Full
Dec 6
Last Quarter

Hourly Weather History & Observations

Time (MST) Temp. Windchill Dew Point Humidity Pressure Visibility Wind Dir Wind Speed Gust Speed Precip Events Conditions
12:53 AM 45.0 °F 43.5 °F 26.1 °F 48% 30.10 in 10.0 mi North 3.5 mph - N/A   Clear
1:53 AM 45.0 °F 41.2 °F 28.0 °F 52% 30.09 in 10.0 mi North 6.9 mph - N/A   Clear
2:53 AM 46.0 °F 43.9 °F 28.9 °F 51% 30.08 in 10.0 mi Variable 4.6 mph - N/A   Clear
3:53 AM 39.9 °F 36.7 °F 25.0 °F 55% 30.08 in 10.0 mi West 4.6 mph - N/A   Clear
4:53 AM 44.1 °F 39.5 °F 28.0 °F 53% 30.08 in 10.0 mi WNW 8.1 mph - N/A   Clear
5:53 AM 43.0 °F - 27.0 °F 53% 30.11 in 10.0 mi North - - N/A   Clear
6:53 AM 43.0 °F 38.2 °F 26.1 °F 51% 30.12 in 10.0 mi West 8.1 mph - N/A   Clear
7:53 AM 51.1 °F - 28.0 °F 41% 30.10 in 10.0 mi West 9.2 mph - N/A   Clear
8:53 AM 57.9 °F - 28.9 °F 33% 30.08 in 10.0 mi West 6.9 mph - N/A   Clear
9:53 AM 70.0 °F - 27.0 °F 20% 30.02 in 10.0 mi SSW 9.2 mph - N/A   Clear
10:53 AM 77.0 °F - 24.1 °F 14% 29.97 in 10.0 mi WSW 13.8 mph 20.7 mph N/A   Clear
11:53 AM 79.0 °F - 21.9 °F 12% 29.91 in 10.0 mi SSW 17.3 mph 24.2 mph N/A   Clear
12:53 PM 82.0 °F - 19.9 °F 10% 29.87 in 10.0 mi SSW 20.7 mph 26.5 mph N/A   Clear
1:53 PM 82.0 °F - 19.0 °F 10% 29.84 in 10.0 mi SSW 23.0 mph 29.9 mph N/A   Clear
2:53 PM 82.0 °F - 19.9 °F 10% 29.83 in 10.0 mi SSW 18.4 mph 27.6 mph N/A   Clear
3:53 PM 80.1 °F - 19.9 °F 11% 29.84 in 10.0 mi SSW 16.1 mph 27.6 mph N/A   Clear
4:53 PM 73.9 °F - 21.9 °F 14% 29.84 in 10.0 mi SSW 15.0 mph - N/A   Clear
5:53 PM 66.9 °F - 23.0 °F 19% 29.88 in 10.0 mi SSW 12.7 mph - N/A   Clear
6:53 PM 64.0 °F - 23.0 °F 21% 29.89 in 10.0 mi SW 12.7 mph - N/A   Clear
7:53 PM 62.1 °F - 21.9 °F 21% 29.87 in 10.0 mi SSW 10.4 mph - N/A   Clear
8:53 PM 61.0 °F - 23.0 °F 23% 29.87 in 10.0 mi NW 4.6 mph - N/A   Clear
9:53 PM 62.1 °F - 24.1 °F 23% 29.84 in 10.0 mi SW 13.8 mph - N/A   Clear
10:53 PM 57.9 °F - 21.0 °F 24% 29.82 in 10.0 mi WSW 11.5 mph - N/A   Clear
11:53 PM 55.9 °F - 18.0 °F 23% 29.82 in 10.0 mi West 9.2 mph - N/A   Clear